Weather History for Torrington, WY

Change the Weather History Date:

Tuesday, February 19, 2013

  Actual Average Record
Temperature  
Mean Temperature 24 °F 32 °F  
Max Temperature 43 °F 46 °F 61 °F (2014)
Min Temperature 5 °F 18 °F -16 °F (2006)
Degree Days  
Heating Degree Days 41 33  
Month to date heating degree days 637 660  
Since 1 July heating degree days 4263 4555  
Cooling Degree Days 0 0  
Month to date cooling degree days 0 0  
Year to date cooling degree days 0 0  
Moisture  
Dew Point 14 °F    
Average Humidity 68    
Maximum Humidity 96    
Minimum Humidity 39    
Precipitation  
Precipitation 0.00 in 0.01 in 0.05 in (2007)
Month to date precipitation 0.06 0.22  
Year to date precipitation 0.16 0.48  
Sea Level Pressure  
Sea Level Pressure 30.09 in    
Wind  
Wind Speed 14 mph (ESE)    
Max Wind Speed 28 mph    
Max Gust Speed 32 mph    
Visibility 10 miles    
Events      
T = Trace of Precipitation, MM = Missing Value Source: NWS Daily Summary

Daily Weather History Graph

Daily Weather History Graph

Search for Another Location

Airport:

Trip Planner

Search our weather history database for the weather conditions in past years. The results will help you decide how hot, cold, wet, or windy it might be!

Date:

Astronomy

Feb. 19, 2013 Rise Set
Actual Time 6:46 AM MST 5:34 PM MST
Civil Twilight 6:18 AM MST 6:03 PM MST
Nautical Twilight 5:45 AM MST 6:35 PM MST
Astronomical Twilight 5:13 AM MST 7:08 PM MST
Moon 12:05 PM MST (2/19) 2:23 AM MST (2/19)
Length of Visible Light 11h 45m
Length of Day
10h 48m
Waxing Gibbous, 68% of the Moon is Illuminated
Feb 19
Waxing Gibbous
Feb 25
Full
Mar 4
Last Quarter
Mar 11
New
Mar 19
First Quarter

Hourly Weather History & Observations

Time (MST) Temp. Windchill Dew Point Humidity Pressure Visibility Wind Dir Wind Speed Gust Speed Precip Events Conditions
12:53 AM 10.9 °F - 8.1 °F 88% 30.22 in 10.0 mi Calm Calm - N/A   Clear
1:53 AM 10.0 °F -1.9 °F 8.1 °F 92% 30.21 in 10.0 mi East 8.1 mph - N/A   Clear
2:53 AM 10.9 °F 0.2 °F 8.1 °F 88% 30.19 in 10.0 mi ESE 6.9 mph - N/A   Partly Cloudy
3:53 AM 8.1 °F -5.3 °F 6.1 °F 92% 30.19 in 10.0 mi East 9.2 mph - N/A   Clear
4:53 AM 5.0 °F -8.1 °F 1.9 °F 87% 30.21 in 10.0 mi East 8.1 mph - N/A   Clear
5:53 AM 6.1 °F -8.7 °F 3.0 °F 87% 30.21 in 10.0 mi East 10.4 mph - N/A   Clear
6:53 AM 7.0 °F -7.5 °F 3.9 °F 87% 30.20 in 10.0 mi East 10.4 mph - N/A   Clear
7:53 AM 14.0 °F 1.2 °F 12.0 °F 92% 30.20 in 10.0 mi ESE 10.4 mph - N/A   Clear
8:53 AM 19.0 °F 7.5 °F 16.0 °F 88% 30.19 in 10.0 mi SE 10.4 mph - N/A   Clear
9:53 AM 25.0 °F 12.6 °F 19.9 °F 81% 30.15 in 10.0 mi ESE 15.0 mph - N/A   Clear
11:53 AM 35.1 °F 24.5 °F 23.0 °F 61% 30.07 in 10.0 mi SE 18.4 mph 25.3 mph N/A   Clear
12:53 PM 41.0 °F 32.2 °F 21.9 °F 47% 30.02 in 10.0 mi SE 18.4 mph 26.5 mph N/A   Clear
1:53 PM 42.1 °F 32.3 °F 19.0 °F 40% 30.00 in 10.0 mi SE 24.2 mph 32.2 mph N/A   Clear
2:53 PM 39.0 °F 29.6 °F 18.0 °F 43% 29.99 in 10.0 mi SE 18.4 mph 28.8 mph N/A   Clear
3:53 PM 39.9 °F 30.0 °F 19.0 °F 43% 29.98 in 10.0 mi SE 21.9 mph 29.9 mph N/A   Clear
5:53 PM 36.0 °F 27.1 °F 19.0 °F 50% 30.00 in 10.0 mi ESE 13.8 mph - N/A   Clear
6:53 PM 33.1 °F 22.6 °F 17.1 °F 52% 30.01 in 10.0 mi ESE 16.1 mph 26.5 mph N/A   Clear
7:53 PM 30.0 °F 18.7 °F 16.0 °F 56% 30.01 in 10.0 mi ESE 16.1 mph 21.9 mph N/A   Clear
8:53 PM 27.0 °F 15.2 °F 16.0 °F 63% 30.00 in 10.0 mi SE 15.0 mph 23.0 mph N/A   Clear
9:53 PM 25.0 °F 13.6 °F 16.0 °F 69% 30.00 in 10.0 mi ESE 12.7 mph - N/A   Clear
10:53 PM 23.0 °F 11.1 °F 15.1 °F 72% 29.99 in 10.0 mi SE 12.7 mph - N/A   Clear
11:53 PM 21.9 °F 8.2 °F 14.0 °F 72% 29.96 in 10.0 mi ESE 16.1 mph - N/A   Clear